AD6NH Weather Reports


time (UTC)temp
C
wind
direction
speed
KPH
gust
KPH
rain 1hr
cm
rain 24hr
cm
rain mn
cm
humidity
%
barometer
mb
20260507083702 15 286 0.0 3.2 0.00 0.00 0.00 82 1017.7
20260507082702 15 307 0.0 3.2 0.00 0.00 0.00 82 1017.8
20260507081702 15 307 0.0 1.6 0.00 0.00 0.00 82 1017.8
20260507080702 15 307 0.0 0.0 0.00 0.00 0.00 81 1017.8
20260507075702 15 328 1.6 3.2 0.00 0.00 0.00 80 1017.7
20260507074702 15 296 1.6 3.2 0.00 0.00 0.00 80 1017.8
20260507073702 15 292 3.2 6.4 0.00 0.00 0.00 78 1017.8
20260507072702 16 319 1.6 4.8 0.00 0.00 0.00 78 1017.9
20260507071702 16 279 1.6 4.8 0.00 0.00 0.00 77 1018.0
20260507070702 16 326 1.6 3.2 0.00 0.00 0.00 76 1017.9
20260507065702 16 327 1.6 3.2 0.00 0.00 0.00 76 1018.1
20260507064702 16 327 0.0 3.2 0.00 0.00 0.00 76 1018.0
20260507063702 16 306 0.0 1.6 0.00 0.00 0.00 76 1018.2
20260507062702 16 305 0.0 3.2 0.00 0.00 0.00 75 1018.1
20260507061702 16 304 1.6 4.8 0.00 0.00 0.00 75 1018.1
20260507060703 16 305 0.0 1.6 0.00 0.00 0.00 74 1018.1
20260507055702 16 309 0.0 3.2 0.00 0.00 0.00 73 1018.1
20260507054702 16 298 1.6 3.2 0.00 0.00 0.00 73 1018.1
20260507053702 16 278 3.2 4.8 0.00 0.00 0.00 72 1018.0
20260507052702 16 301 1.6 6.4 0.00 0.00 0.00 72 1018.0
20260507051702 16 274 1.6 6.4 0.00 0.00 0.00 72 1017.9
20260507050702 16 305 6.4 8.0 0.00 0.00 0.00 71 1017.9
20260507045702 17 244 3.2 6.4 0.00 0.00 0.00 70 1017.9
20260507044702 17 284 3.2 6.4 0.00 0.00 0.00 68 1018.0
20260507043702 17 284 6.4 8.0 0.00 0.00 0.00 66 1017.9
20260507042702 17 266 4.8 6.4 0.00 0.00 0.00 65 1017.8
20260507041702 17 277 3.2 4.8 0.00 0.00 0.00 65 1017.8
20260507040702 17 295 1.6 9.7 0.00 0.00 0.00 65 1017.6
20260507035702 17 304 4.8 8.0 0.00 0.00 0.00 65 1017.5
20260507034702 17 324 3.2 8.0 0.00 0.00 0.00 64 1017.6
20260507033702 18 283 8.0 9.7 0.00 0.00 0.00 62 1017.3
20260507032702 18 275 6.4 14.5 0.00 0.00 0.00 62 1017.2
20260507031702 18 322 3.2 6.4 0.00 0.00 0.00 61 1017.1
20260507030702 18 265 9.7 14.5 0.00 0.00 0.00 61 1017.0
20260507025702 19 270 4.8 8.0 0.00 0.00 0.00 59 1016.9
20260507024702 19 264 3.2 6.4 0.00 0.00 0.00 59 1016.9
20260507023702 20 274 8.0 14.5 0.00 0.00 0.00 57 1016.7
20260507022702 20 277 6.4 8.0 0.00 0.00 0.00 57 1016.6
20260507021702 20 253 4.8 9.7 0.00 0.00 0.00 57 1016.6
20260507020702 21 293 3.2 8.0 0.00 0.00 0.00 55 1016.4
20260507015702 21 244 3.2 8.0 0.00 0.00 0.00 55 1016.4
20260507014702 21 237 6.4 9.7 0.00 0.00 0.00 59 1016.4
20260507013702 21 215 6.4 14.5 0.00 0.00 0.00 57 1016.3
20260507012702 21 194 9.7 12.9 0.00 0.00 0.00 56 1016.2
20260507011702 21 234 6.4 12.9 0.00 0.00 0.00 57 1016.2
20260507010702 21 199 4.8 14.5 0.00 0.00 0.00 54 1016.1
20260507005702 22 131 6.4 16.1 0.00 0.00 0.00 49 1016.1
20260507004702 22 181 12.9 16.1 0.00 0.00 0.00 49 1016.1
20260507003702 22 209 8.0 16.1 0.00 0.00 0.00 48 1016.2
20260507002702 22 219 6.4 14.5 0.00 0.00 0.00 51 1016.1
20260507001702 22 180 16.1 24.1 0.00 0.00 0.00 50 1016.1
20260507000702 23 170 8.0 9.7 0.00 0.00 0.00 50 1016.0
20260506235702 22 201 9.7 17.7 0.00 0.00 0.00 50 1016.0
20260506234702 22 185 8.0 12.9 0.00 0.00 0.00 50 1016.1
20260506233702 22 189 11.3 16.1 0.00 0.00 0.00 50 1016.1
20260506232702 22 207 6.4 17.7 0.00 0.00 0.00 49 1016.1
20260506231702 23 235 11.3 16.1 0.00 0.00 0.00 48 1016.1
20260506230702 22 243 8.0 14.5 0.00 0.00 0.00 50 1016.3
20260506225702 22 225 14.5 17.7 0.00 0.00 0.00 50 1016.5
20260506224702 23 237 11.3 17.7 0.00 0.00 0.00 48 1016.5
20260506223702 23 252 11.3 16.1 0.00 0.00 0.00 49 1016.6
20260506222702 22 197 6.4 12.9 0.00 0.00 0.00 48 1016.6
20260506221702 23 243 12.9 16.1 0.00 0.00 0.00 46 1016.8
20260506220702 23 234 6.4 14.5 0.00 0.00 0.00 44 1016.9
20260506215702 23 237 9.7 14.5 0.00 0.00 0.00 43 1017.0
20260506214702 23 247 9.7 16.1 0.00 0.00 0.00 43 1017.1
20260506213702 23 253 9.7 14.5 0.00 0.00 0.00 44 1017.2
20260506212702 23 197 6.4 12.9 0.00 0.00 0.00 45 1017.2
20260506211702 23 196 3.2 12.9 0.00 0.00 0.00 44 1017.3
20260506210702 23 193 11.3 16.1 0.00 0.00 0.00 45 1017.5
20260506205702 23 271 4.8 8.0 0.00 0.00 0.00 46 1017.6
20260506204702 22 325 6.4 14.5 0.00 0.00 0.00 47 1017.6
20260506203702 23 259 3.2 6.4 0.00 0.00 0.00 45 1017.7
20260506202702 23 158 6.4 12.9 0.00 0.00 0.00 47 1017.9
20260506201702 23 138 4.8 14.5 0.00 0.00 0.00 46 1017.9
20260506200702 23 218 6.4 12.9 0.00 0.00 0.00 48 1018.2
20260506195702 23 165 6.4 14.5 0.00 0.00 0.00 47 1018.3
20260506194702 23 196 3.2 9.7 0.00 0.00 0.00 48 1018.2
20260506193702 23 198 12.9 27.4 0.00 0.00 0.00 48 1018.4
20260506192702 22 180 1.6 12.9 0.00 0.00 0.00 51 1018.4
20260506191702 22 253 14.5 17.7 0.00 0.00 0.00 50 1018.5
20260506190702 23 285 6.4 9.7 0.00 0.00 0.00 49 1018.5
20260506185702 22 280 9.7 17.7 0.00 0.00 0.00 52 1018.8
20260506184702 22 264 6.4 12.9 0.00 0.00 0.00 52 1018.8
20260506183703 22 236 4.8 4.8 0.00 0.00 0.00 50 1018.9
20260506182702 20 306 4.8 12.9 0.00 0.00 0.00 52 1018.9
20260506181702 21 307 8.0 16.1 0.00 0.00 0.00 49 1019.0
20260506180702 20 187 3.2 12.9 0.00 0.00 0.00 53 1019.0
20260506175702 21 74 4.8 6.4 0.00 0.00 0.00 50 1019.0
20260506174702 22 155 9.7 14.5 0.00 0.00 0.00 49 1019.0
20260506173702 21 251 3.2 8.0 0.00 0.00 0.00 48 1019.0
20260506172702 21 155 0.0 1.6 0.00 0.00 0.00 50 1019.1
20260506171702 21 103 3.2 4.8 0.00 0.00 0.00 50 1019.0
20260506170702 20 227 0.0 6.4 0.00 0.00 0.00 51 1019.1
20260506165702 20 202 4.8 8.0 0.00 0.00 0.00 50 1019.1
20260506164702 20 131 6.4 8.0 0.00 0.00 0.00 52 1019.0
20260506163702 20 130 4.8 6.4 0.00 0.00 0.00 54 1019.1
20260506162702 20 142 3.2 8.0 0.00 0.00 0.00 55 1019.1
20260506161702 20 193 3.2 12.9 0.00 0.00 0.00 55 1019.0
20260506160702 18 127 3.2 8.0 0.00 0.00 0.00 59 1019.0
20260506155702 19 171 0.0 6.4 0.00 0.00 0.00 58 1019.1
20260506154702 18 143 0.0 3.2 0.00 0.00 0.00 59 1019.2
20260506153702 18 75 3.2 8.0 0.00 0.00 0.00 60 1019.3
20260506152702 18 58 1.6 4.8 0.00 0.00 0.00 60 1019.3
20260506151702 17 57 0.0 3.2 0.00 0.00 0.00 62 1019.3
20260506150702 17 57 1.6 4.8 0.00 0.00 0.00 62 1019.3
20260506145702 17 57 1.6 4.8 0.00 0.00 0.00 63 1019.2
20260506144702 16 58 3.2 6.4 0.00 0.00 0.00 63 1019.3
20260506143702 16 73 1.6 4.8 0.00 0.00 0.00 66 1019.0
20260506142702 15 80 3.2 4.8 0.00 0.00 0.00 68 1019.1
20260506141702 15 52 3.2 6.4 0.00 0.00 0.00 69 1019.1
20260506140702 14 85 3.2 4.8 0.00 0.00 0.00 71 1019.0
20260506135702 13 78 0.0 3.2 0.00 0.00 0.00 70 1019.0
20260506134702 13 77 3.2 3.2 0.00 0.00 0.00 70 1018.9
20260506133702 12 84 0.0 1.6 0.00 0.00 0.00 75 1018.8
20260506132702 12 84 0.0 3.2 0.00 0.00 0.00 75 1018.6
20260506131703 12 86 1.6 4.8 0.00 0.00 0.00 75 1018.6
20260506130702 11 86 3.2 4.8 0.00 0.00 0.00 77 1018.4
20260506125702 12 86 3.2 4.8 0.00 0.00 0.00 77 1018.3
20260506124702 12 92 1.6 4.8 0.00 0.00 0.00 77 1018.3
20260506123702 11 116 1.6 3.2 0.00 0.00 0.00 79 1018.2
20260506122702 11 117 0.0 1.6 0.00 0.00 0.00 81 1018.1
20260506121702 11 116 0.0 1.6 0.00 0.00 0.00 81 1018.1
20260506120702 11 116 0.0 0.0 0.00 0.00 0.00 82 1018.2
20260506115702 11 116 0.0 1.6 0.00 0.00 0.00 82 1018.0
20260506114702 11 116 0.0 0.0 0.00 0.00 0.00 82 1018.0
20260506113703 12 116 0.0 1.6 0.00 0.00 0.00 81 1018.0
20260506112702 12 116 0.0 1.6 0.00 0.00 0.00 80 1018.0
20260506111702 12 116 0.0 1.6 0.00 0.00 0.00 80 1018.0
20260506110702 12 116 0.0 1.6 0.00 0.00 0.00 80 1018.0
20260506105702 12 116 0.0 1.6 0.00 0.00 0.00 81 1018.0
20260506104702 12 116 1.6 1.6 0.00 0.00 0.00 81 1018.1
20260506103702 12 116 1.6 1.6 0.00 0.00 0.00 81 1018.0
20260506102702 13 117 1.6 4.8 0.00 0.00 0.00 81 1017.9
20260506101703 13 118 0.0 1.6 0.00 0.00 0.00 82 1018.0
20260506100702 13 126 0.0 1.6 0.00 0.00 0.00 83 1018.0
20260506095702 13 126 0.0 1.6 0.00 0.00 0.00 83 1018.0
20260506094702 13 126 0.0 1.6 0.00 0.00 0.00 83 1018.1
20260506093702 13 126 1.6 3.2 0.00 0.00 0.00 83 1017.9
20260506092702 13 133 1.6 3.2 0.00 0.00 0.00 84 1018.1
20260506091702 13 134 0.0 3.2 0.00 0.00 0.00 84 1018.1
20260506090702 13 134 1.6 3.2 0.00 0.00 0.00 86 1018.2
20260506085702 13 134 0.0 0.0 0.00 0.00 0.00 86 1018.3
20260506084702 13 134 1.6 1.6 0.00 0.00 0.00 86 1018.3